When you browse on this site, cookies collect data to enhance your experience and personalize the content and advertising you see.
Visit our Privacy Policy to learn more. By continuing to use the site, you agree to this use of cookies and data.
  • In Spain
  • List of Countries
  • For 7 days
  • Water Temperature
  • Satellite Maps
  • Weather Map
  • Weather Widgets
  • user-avatar
    Login

    Hourly Weather Batina

    Today, 19 December, Wednesday

    Time Temperature Precipitation Wind Pressure Humidity
    00:00 +5°C° 0 mm 2 mps 675 mmHg 49%
    01:00 +5°C° 0 mm 2 mps 675 mmHg 52%
    02:00 +5°C° 0 mm 2 mps 675 mmHg 54%
    03:00 +5°C° 0 mm 2 mps 675 mmHg 57%
    04:00 +5°C° 0 mm 2 mps 675 mmHg 59%
    05:00 +5°C° 0 mm 2 mps 675 mmHg 60%
    06:00 +5°C° 0 mm 2 mps 675 mmHg 62%
    07:00 +6°C° 0 mm 2 mps 675 mmHg 57%
    08:00 +8°C° 0 mm 2 mps 676 mmHg 52%
    09:00 +10°C° 0 mm 2 mps 676 mmHg 47%
    10:00 +12°C° 0 mm 2 mps 676 mmHg 44%
    11:00 +13°C° 0 mm 2 mps 676 mmHg 40%
    12:00 +14°C° 0 mm 2 mps 676 mmHg 37%
    13:00 +14°C° 0 mm 2 mps 676 mmHg 37%
    14:00 +14°C° 0 mm 2 mps 676 mmHg 37%
    15:00 +14°C° 0 mm 2 mps 676 mmHg 37%
    16:00 +13°C° 0 mm 2 mps 675 mmHg 43%
    17:00 +11°C° 0 mm 1 mps 675 mmHg 48%
    18:00 +10°C° 0 mm 1 mps 675 mmHg 53%
    19:00 +9°C° 0 mm 1 mps 675 mmHg 54%
    20:00 +9°C° 0 mm 1 mps 675 mmHg 55%
    21:00 +8°C° 0 mm 1 mps 675 mmHg 56%
    22:00 +8°C° 0 mm 1 mps 675 mmHg 57%
    23:00 +7°C° 0 mm 1 mps 674 mmHg 58%

    Tomorrow, 20 December, Thursday

    Time Temperature Precipitation Wind Pressure Humidity
    00:00 +6°C° 0 mm 0 mps 674 mmHg 59%
    01:00 +6°C° 0 mm 0 mps 674 mmHg 59%
    02:00 +5°C° 0 mm 0 mps 674 mmHg 60%
    03:00 +5°C° 0 mm 0 mps 674 mmHg 60%
    04:00 +5°C° 0 mm 0 mps 674 mmHg 61%
    05:00 +5°C° 0 mm 0 mps 674 mmHg 61%
    06:00 +5°C° 0 mm 0 mps 674 mmHg 62%
    07:00 +7°C° 0 mm 0 mps 675 mmHg 55%
    08:00 +9°C° 0 mm 0 mps 676 mmHg 49%
    09:00 +11°C° 0 mm 0 mps 676 mmHg 42%
    10:00 +12°C° 0 mm 1 mps 676 mmHg 42%
    11:00 +13°C° 0 mm 1 mps 676 mmHg 42%
    12:00 +14°C° 0 mm 1 mps 676 mmHg 41%
    13:00 +14°C° 0 mm 2 mps 676 mmHg 42%
    14:00 +14°C° 0 mm 2 mps 676 mmHg 43%
    15:00 +13°C° 0 mm 3 mps 676 mmHg 43%
    16:00 +13°C° 0 mm 2 mps 676 mmHg 49%
    17:00 +10°C° 0 mm 2 mps 676 mmHg 55%
    18:00 +9°C° 0 mm 2 mps 676 mmHg 61%
    19:00 +9°C° 0 mm 2 mps 676 mmHg 63%
    20:00 +9°C° 0 mm 2 mps 677 mmHg 66%
    21:00 +9°C° 0 mm 2 mps 677 mmHg 68%
    22:00 +8°C° 0 mm 2 mps 677 mmHg 71%
    23:00 +8°C° 0 mm 2 mps 677 mmHg 74%

    Day after tomorrow, 21 December, Friday

    Time Temperature Precipitation Wind Pressure Humidity
    00:00 +8°C° 0 mm 2 mps 677 mmHg 78%
    01:00 +7°C° 0 mm 2 mps 677 mmHg 80%
    02:00 +7°C° 0 mm 2 mps 677 mmHg 83%
    03:00 +7°C° 0 mm 2 mps 677 mmHg 86%
    04:00 +7°C° 0 mm 1 mps 677 mmHg 87%
    05:00 +7°C° 0 mm 1 mps 677 mmHg 88%
    06:00 +6°C° 0 mm 1 mps 677 mmHg 89%
    07:00 +8°C° 0 mm 1 mps 678 mmHg 84%
    08:00 +9°C° 0 mm 1 mps 679 mmHg 79%
    09:00 +10°C° 0 mm 1 mps 680 mmHg 73%
    10:00 +10°C° 0 mm 1 mps 680 mmHg 69%
    11:00 +11°C° 0 mm 1 mps 680 mmHg 65%
    12:00 +12°C° 0 mm 1 mps 680 mmHg 61%
    13:00 +12°C° 0 mm 1 mps 680 mmHg 60%
    14:00 +12°C° 0 mm 1 mps 679 mmHg 59%
    15:00 +12°C° 0 mm 1 mps 679 mmHg 57%
    16:00 +11°C° 0 mm 1 mps 679 mmHg 62%
    17:00 +10°C° 0 mm 1 mps 679 mmHg 67%
    18:00 +9°C° 0 mm 1 mps 679 mmHg 72%
    19:00 +8°C° 0 mm 0 mps 679 mmHg 75%
    20:00 +7°C° 0 mm 0 mps 679 mmHg 78%
    21:00 +7°C° 0 mm 0 mps 679 mmHg 80%
    22:00 +6°C° 0 mm 0 mps 679 mmHg 81%
    23:00 +7°C° 0 mm 1 mps 679 mmHg 81%

    22 December, Saturday

    Time Temperature Precipitation Wind Pressure Humidity
    00:00 +7°C° 0 mm 1 mps 679 mmHg 82%
    01:00 +7°C° 0 mm 1 mps 679 mmHg 82%
    02:00 +7°C° 0 mm 1 mps 678 mmHg 83%
    03:00 +6°C° 0 mm 1 mps 678 mmHg 83%
    04:00 +6°C° 0 mm 1 mps 678 mmHg 83%
    05:00 +6°C° 0 mm 1 mps 678 mmHg 83%
    06:00 +5°C° 0 mm 1 mps 678 mmHg 83%
    07:00 +7°C° 0 mm 1 mps 679 mmHg 75%
    08:00 +9°C° 0 mm 1 mps 680 mmHg 67%
    09:00 +9°C° 0 mm 2 mps 680 mmHg 59%
    10:00 +10°C° 0 mm 2 mps 680 mmHg 53%
    11:00 +12°C° 0 mm 2 mps 680 mmHg 47%
    12:00 +13°C° 0 mm 2 mps 680 mmHg 42%
    13:00 +13°C° 0 mm 2 mps 680 mmHg 41%
    14:00 +14°C° 0 mm 2 mps 679 mmHg 40%
    15:00 +14°C° 0 mm 2 mps 679 mmHg 39%
    16:00 +12°C° 0 mm 2 mps 679 mmHg 45%
    17:00 +11°C° 0 mm 1 mps 679 mmHg 51%
    18:00 +9°C° 0 mm 1 mps 678 mmHg 57%
    19:00 +8°C° 0 mm 1 mps 678 mmHg 59%
    20:00 +7°C° 0 mm 0 mps 678 mmHg 60%
    21:00 +6°C° 0 mm 0 mps 678 mmHg 62%
    22:00 +6°C° 0 mm 0 mps 678 mmHg 62%
    23:00 +6°C° 0 mm 0 mps 678 mmHg 63%

    23 December, Sunday

    Time Temperature Precipitation Wind Pressure Humidity
    00:00 +7°C° 0 mm 1 mps 677 mmHg 63%
    01:00 +6°C° 0 mm 1 mps 677 mmHg 63%
    02:00 +6°C° 0 mm 1 mps 677 mmHg 63%
    03:00 +6°C° 0 mm 1 mps 676 mmHg 64%
    04:00 +4°C° 0 mm 0 mps 676 mmHg 63%
    05:00 +4°C° 0 mm 0 mps 676 mmHg 63%
    06:00 +4°C° 0 mm 0 mps 676 mmHg 63%
    07:00 +6°C° 0 mm 0 mps 677 mmHg 54%
    08:00 +9°C° 0 mm 0 mps 678 mmHg 45%
    09:00 +11°C° 0 mm 0 mps 679 mmHg 35%
    10:00 +13°C° 0 mm 1 mps 679 mmHg 32%
    11:00 +14°C° 0 mm 1 mps 679 mmHg 29%
    12:00 +15°C° 0 mm 1 mps 679 mmHg 26%
    13:00 +15°C° 0 mm 1 mps 679 mmHg 26%
    14:00 +15°C° 0 mm 1 mps 679 mmHg 26%
    15:00 +16°C° 0 mm 1 mps 679 mmHg 26%
    16:00 +14°C° 0 mm 1 mps 678 mmHg 32%
    17:00 +12°C° 0 mm 1 mps 678 mmHg 38%
    18:00 +9°C° 0 mm 0 mps 677 mmHg 43%
    19:00 +8°C° 0 mm 0 mps 677 mmHg 44%
    20:00 +8°C° 0 mm 0 mps 677 mmHg 44%
    21:00 +7°C° 0 mm 0 mps 677 mmHg 44%
    22:00 +7°C° 0 mm 0 mps 677 mmHg 43%
    23:00 +7°C° 0 mm 0 mps 677 mmHg 43%

    24 December, Monday

    Time Temperature Precipitation Wind Pressure Humidity
    00:00 +6°C° 0 mm 0 mps 677 mmHg 43%
    01:00 +6°C° 0 mm 0 mps 676 mmHg 43%
    02:00 +6°C° 0 mm 0 mps 676 mmHg 44%
    03:00 +5°C° 0 mm 0 mps 676 mmHg 45%
    04:00 +5°C° 0 mm 0 mps 676 mmHg 44%
    05:00 +5°C° 0 mm 0 mps 676 mmHg 44%
    06:00 +5°C° 0 mm 0 mps 676 mmHg 44%
    07:00 +7°C° 0 mm 0 mps 677 mmHg 38%
    08:00 +10°C° 0 mm 0 mps 678 mmHg 32%
    09:00 +14°C° 0 mm 1 mps 679 mmHg 26%
    10:00 +15°C° 0 mm 1 mps 679 mmHg 24%
    11:00 +16°C° 0 mm 1 mps 679 mmHg 22%
    12:00 +18°C° 0 mm 1 mps 679 mmHg 20%
    13:00 +18°C° 0 mm 1 mps 678 mmHg 21%
    14:00 +18°C° 0 mm 1 mps 678 mmHg 22%
    15:00 +18°C° 0 mm 1 mps 678 mmHg 23%
    16:00 +15°C° 0 mm 1 mps 677 mmHg 27%
    17:00 +12°C° 0 mm 1 mps 677 mmHg 32%
    18:00 +9°C° 0 mm 0 mps 676 mmHg 37%
    19:00 +9°C° 0 mm 0 mps 677 mmHg 37%
    20:00 +10°C° 0 mm 1 mps 677 mmHg 37%
    21:00 +9°C° 0 mm 1 mps 677 mmHg 37%
    22:00 +9°C° 0 mm 1 mps 676 mmHg 36%
    23:00 +9°C° 0 mm 1 mps 676 mmHg 36%
    Show more